Showing default

GALILEO 13 (26A), 41550

Orbit data source: Space-Track

GALILEO 13 (26A), 41550 is a payload satellite owned by GNSS Agency (ESA) that was launched on Tue, 24 May 2016 UTC via a SOYUZ-ST-B launch vehicle from the French Guiana (FRGUI). Payload-class satellites include a variety of spacecraft equipped with specific instruments for various scientific and technological missions. These include communications satellites like Starlink; space stations such as the ISS; scientific satellites like the Hubble; Earth observation satellites from companies like Planet Labs, Umbra, and HawkEye 360; GPS; miniature CubeSats for education and research; and military/defense satellites.

Loading next visibility...
Identifier
41550, 2016-030B
Orbit
Active
Last TLE update
1 day ago
Origin
Manufacturer
OHB
Mission
Operational Civil Navigation
Bus & Motor
GALILEOSAT, AOCS
Mass
733 kg wet, 660 kg dry
Launch date (UTC)
2016-05-24 (9 years ago)
Launch vehicle
SOYUZ-ST-B
Launch site
French Guiana (FRGUI)
Object type
Payload
Rocket body
Debris
Shape & HBR
Box + 2 Pan, 14.71 m
Radar Cross Section
9.223 m², Large (>1 m²)

Expand to show TLE details & history

TLE from 1 day ago
0 GALILEO 13 (26A)
1 41550U 16030B   25183.44960380  .00000034  00000-0  00000-0 0  9995
2 41550  55.2086 231.3110 0004305 235.1969 124.8387  1.70474128 56706
Epoch: 2025-07-02T10:47Z
TLE epoch observation values (Epoch: 2025-07-02T10:47:25.768Z)
Latitude
0.00001°
Longitude
148.73678°
Altitude
23,229.721 km
Speed
3.669 km/s
True Right ascension
15h 25m 17s
True Declination
0° 00' 00"
Sunlit
Object was in daylight at epoch
Visualization orbit readout
Latitude
-47.89056°
Longitude
98.54978°
Altitude
23,233 km
Speed
3.67 km/s
Apparent Right ascension
12h 06m 01s
Apparent Declination
-46° 24' 58"
Sunlit
Object is in daylight
Visualization observer readout
Local Sidereal Time
00:11:59
Azimuth
170.995° S
Elevation
-83.41°
Doppler factor
1
Orbital elements
Apogee altitude
23,234.912 km
Perigee altitude
23,209.426 km
Semi-major axis
29,600.306 km
Eccentricity
0.00043
Inclination
55.2086°
RAAN
231.311°
Arg. of periapsis
235.1969°
True anomaly
Unknown
Mean anomaly
124.8387°
Eccentric anomaly
Unknown
Mean motion
0.42619 °/min
Orbital period
844.7 mins
BSTAR
0
Loading maneuver chart data...
Loading SW <> Apogee altitude chart data...
Loading historical data...
Loading historical data...
Loading historical data...
Loading historical data...
Loading historical data...
Loading historical data...
Loading historical data...
Other satellites on launch #30 in the year 2016 (2016-05-24 UTC)

GALILEO 13 (26A) Visibility forecast

Observer location: undefined°, undefined°

Span
Click to sort rows by Start time (UTC) header in descending order
Start Az.
Max El. time (UTC)
Max El. Az.
Max El.
End time (UTC)
End Az.
514 mins2025-07-04 03:50:20.132Z201.7° SSW2025-07-04 07:29:20.132Z317.08° NNW44.245°2025-07-04 12:24:20.132Z121.487° SE
|